Mora, MN

7:34 AM CST on December 04, 2016 (GMT -0600)
Mora Municipal

Weather History for KJMR - March, 2012

Change the Weather History Date:

Saturday, March 17, 2012

  Actual Average Record
Temperature  
Mean Temperature 58 °F -  
Max Temperature 75 °F 39 °F 75 °F (2012)
Min Temperature 42 °F 14 °F -15 °F (1941)
Degree Days  
Heating Degree Days 6    
Growing Degree Days 8 (Base 50)    
Moisture  
Dew Point 52 °F    
Average Humidity 75    
Maximum Humidity 94    
Minimum Humidity 50    
Precipitation  
Precipitation 0.00 in - - ()
Sea Level Pressure  
Sea Level Pressure 29.78 in    
Wind  
Wind Speed 6 mph (South)    
Max Wind Speed 18 mph    
Max Gust Speed 26 mph    
Visibility 9 miles    
Events      
Averages and records for this station are not official NWS values.
T = Trace of Precipitation, MM = Missing Value Source: NWS Daily Summary

Daily Weather History Graph

Daily Weather History Graph

Search for Another Location

Airport or City:

Trip Planner

Search our weather history database for the weather conditions in past years. The results will help you decide how hot, cold, wet, or windy it might be!

Date:

Astronomy

Mar. 17, 2012 Rise Set
Actual Time 7:20 AM CDT 7:22 PM CDT
Civil Twilight 6:51 AM CDT 7:52 PM CDT
Nautical Twilight 6:16 AM CDT 8:26 PM CDT
Astronomical Twilight 5:40 AM CDT 9:02 PM CDT
Moon 4:37 AM CDT (3/17) 2:33 PM CDT (3/17)
Length of Visible Light 13h 00m
Length of Day
12h 01m
Waning Crescent, 23% of the Moon is Illuminated
Mar 17
Waning Crescent
Mar 22
New
Mar 30
First Quarter
Apr 6
Full
Apr 13
Last Quarter

Hourly Weather History & Observations

Time (CDT) Temp. Dew Point Humidity Pressure Visibility Wind Dir Wind Speed Gust Speed Precip Events Conditions
12:15 AM 44.6 °F 41.0 °F 87% 29.80 in 10.0 mi Calm Calm - N/A   Scattered Clouds
12:36 AM 44.6 °F 41.0 °F 87% 29.79 in 10.0 mi Calm Calm - N/A   Clear
12:56 AM 42.8 °F 37.4 °F 81% 29.79 in 10.0 mi Calm Calm - N/A   Clear
1:15 AM 42.8 °F 37.4 °F 81% 29.79 in 10.0 mi Calm Calm - N/A   Clear
1:36 AM 42.8 °F 37.4 °F 81% 29.79 in 10.0 mi Calm Calm - N/A   Clear
1:55 AM 42.8 °F 37.4 °F 81% 29.79 in 10.0 mi Calm Calm - N/A   Clear
2:15 AM 42.8 °F 37.4 °F 81% 29.79 in 10.0 mi Calm Calm - N/A   Clear
2:36 AM 44.6 °F 41.0 °F 87% 29.79 in 10.0 mi Calm Calm - N/A   Clear
2:56 AM 48.2 °F 44.6 °F 87% 29.79 in 10.0 mi SSE 3.5 mph - N/A   Clear
3:15 AM 51.8 °F 50.0 °F 94% 29.79 in 10.0 mi South 4.6 mph - N/A   Clear
3:35 AM 55.4 °F 50.0 °F 82% 29.78 in 10.0 mi South 4.6 mph - N/A   Clear
3:56 AM 55.4 °F 50.0 °F 82% 29.78 in 10.0 mi South 4.6 mph - N/A   Clear
4:16 AM 55.4 °F 50.0 °F 82% 29.77 in 10.0 mi South 3.5 mph - N/A   Clear
4:35 AM 55.4 °F 51.8 °F 88% 29.77 in 10.0 mi South 5.8 mph - N/A   Clear
4:55 AM 53.6 °F 50.0 °F 88% 29.77 in 10.0 mi South 4.6 mph - N/A   Clear
5:15 AM 53.6 °F 50.0 °F 88% 29.77 in 10.0 mi South 4.6 mph - N/A   Clear
5:35 AM 53.6 °F 50.0 °F 88% 29.78 in 7.0 mi SSE 4.6 mph - N/A   Clear
5:55 AM 53.6 °F 50.0 °F 88% 29.77 in 7.0 mi SSE 3.5 mph - N/A   Clear
6:16 AM 53.6 °F 50.0 °F 88% 29.78 in 7.0 mi SSE 4.6 mph - N/A   Clear
6:36 AM 53.6 °F 50.0 °F 88% 29.78 in 7.0 mi SSE 5.8 mph - N/A   Clear
6:55 AM 53.6 °F 50.0 °F 88% 29.78 in 7.0 mi SSE 5.8 mph - N/A   Clear
7:15 AM 53.6 °F 50.0 °F 88% 29.78 in 7.0 mi SSE 4.6 mph - N/A   Clear
7:36 AM 53.6 °F 50.0 °F 88% 29.79 in 5.0 mi South 6.9 mph - N/A   Clear
7:56 AM 53.6 °F 50.0 °F 88% 29.79 in 5.0 mi South 6.9 mph - N/A   Clear
8:15 AM 53.6 °F 50.0 °F 88% 29.79 in 5.0 mi South 5.8 mph - N/A   Clear
8:36 AM 55.4 °F 51.8 °F 88% 29.79 in 5.0 mi South 6.9 mph - N/A   Clear
8:56 AM 55.4 °F 51.8 °F 88% 29.79 in 7.0 mi South 6.9 mph - N/A   Clear
9:15 AM 59.0 °F 53.6 °F 82% 29.79 in 7.0 mi South 11.5 mph 16.1 mph N/A   Clear
9:36 AM 60.8 °F 53.6 °F 77% 29.79 in 7.0 mi South 10.4 mph - N/A   Clear
9:56 AM 62.6 °F 55.4 °F 77% 29.79 in 10.0 mi South 12.7 mph 19.6 mph N/A   Clear
10:15 AM 64.4 °F 59.0 °F 83% 29.79 in 10.0 mi SSW 12.7 mph - N/A   Scattered Clouds
10:35 AM 64.4 °F 57.2 °F 77% 29.79 in 10.0 mi South 11.5 mph 17.3 mph N/A   Mostly Cloudy
10:56 AM 64.4 °F 57.2 °F 77% 29.80 in 10.0 mi SSW 13.8 mph 17.3 mph N/A   Overcast
11:15 AM 64.4 °F 57.2 °F 77% 29.80 in 10.0 mi SSW 10.4 mph - N/A   Overcast
11:35 AM 64.4 °F 57.2 °F 77% 29.80 in 10.0 mi SW 15.0 mph - N/A   Overcast
11:56 AM 64.4 °F 57.2 °F 77% 29.80 in 10.0 mi SSW 11.5 mph 18.4 mph N/A   Overcast
12:16 PM 64.4 °F 57.2 °F 77% 29.80 in 7.0 mi SSW 13.8 mph - N/A   Overcast
12:35 PM 64.4 °F 57.2 °F 77% 29.80 in 10.0 mi SW 10.4 mph - N/A   Overcast
12:55 PM 68.0 °F 57.2 °F 68% 29.80 in 10.0 mi SSW 8.1 mph - N/A   Overcast
1:15 PM 69.8 °F 60.8 °F 73% 29.79 in 10.0 mi South 12.7 mph 16.1 mph N/A   Overcast
1:36 PM 69.8 °F 59.0 °F 68% 29.79 in 10.0 mi South 13.8 mph 19.6 mph N/A   Overcast
1:55 PM 71.6 °F 59.0 °F 64% 29.78 in 10.0 mi SSW 10.4 mph 17.3 mph N/A   Mostly Cloudy
2:15 PM 73.4 °F 59.0 °F 61% 29.77 in 10.0 mi South 10.4 mph 18.4 mph N/A   Scattered Clouds
2:36 PM 73.4 °F 59.0 °F 61% 29.75 in 10.0 mi South 18.4 mph 23.0 mph N/A   Mostly Cloudy
2:55 PM 73.4 °F 59.0 °F 61% 29.75 in 10.0 mi South 17.3 mph 21.9 mph N/A   Mostly Cloudy
3:15 PM 75.2 °F 57.2 °F 53% 29.75 in 10.0 mi South 15.0 mph 23.0 mph N/A   Mostly Cloudy
3:35 PM 73.4 °F 55.4 °F 53% 29.75 in 10.0 mi SSW 16.1 mph 26.5 mph N/A   Mostly Cloudy
3:56 PM 73.4 °F 55.4 °F 53% 29.75 in 10.0 mi SSW 16.1 mph 23.0 mph N/A   Mostly Cloudy
4:15 PM 73.4 °F 55.4 °F 53% 29.75 in 10.0 mi South 11.5 mph 16.1 mph N/A   Scattered Clouds
4:35 PM 73.4 °F 55.4 °F 53% 29.74 in 10.0 mi South 15.0 mph 20.7 mph N/A   Scattered Clouds
4:56 PM 75.2 °F 55.4 °F 50% 29.74 in 10.0 mi South 16.1 mph 23.0 mph N/A   Clear
5:15 PM 75.2 °F 55.4 °F 50% 29.73 in 10.0 mi SSW 11.5 mph - N/A   Scattered Clouds
5:35 PM 75.2 °F 55.4 °F 50% 29.73 in 10.0 mi SSW 16.1 mph 19.6 mph N/A   Scattered Clouds
5:56 PM 75.2 °F 55.4 °F 50% 29.73 in 10.0 mi SSW 9.2 mph 17.3 mph N/A   Scattered Clouds
6:15 PM 73.4 °F 53.6 °F 50% 29.73 in 10.0 mi SSW 12.7 mph 18.4 mph N/A   Scattered Clouds
6:35 PM 73.4 °F 55.4 °F 53% 29.73 in 10.0 mi SW 8.1 mph - N/A   Clear
6:55 PM 69.8 °F 53.6 °F 56% 29.73 in 10.0 mi South 5.8 mph - N/A   Clear
7:16 PM 69.8 °F 55.4 °F 60% 29.74 in 10.0 mi South 3.5 mph - N/A   Scattered Clouds
7:35 PM 69.8 °F 55.4 °F 60% 29.74 in 10.0 mi SSE 3.5 mph - N/A   Scattered Clouds
7:56 PM 69.8 °F 55.4 °F 60% 29.74 in 10.0 mi SSE 3.5 mph - N/A   Mostly Cloudy
8:15 PM 69.8 °F 55.4 °F 60% 29.75 in 10.0 mi Calm Calm - N/A   Mostly Cloudy
8:36 PM 64.4 °F 53.6 °F 68% 29.75 in 10.0 mi South 3.5 mph - N/A   Mostly Cloudy
8:55 PM 64.4 °F 53.6 °F 68% 29.75 in 10.0 mi SE 3.5 mph - N/A   Scattered Clouds
9:15 PM 64.4 °F 53.6 °F 68% 29.75 in 10.0 mi SSE 3.5 mph - N/A   Clear
9:35 PM 64.4 °F 55.4 °F 73% 29.76 in 10.0 mi SE 3.5 mph - N/A   Clear
9:55 PM 64.4 °F 55.4 °F 73% 29.76 in 10.0 mi SE 3.5 mph - N/A   Clear
10:16 PM 62.6 °F 53.6 °F 72% 29.76 in 10.0 mi Calm Calm - N/A   Scattered Clouds
10:35 PM 60.8 °F 53.6 °F 77% 29.76 in 10.0 mi SE 3.5 mph - N/A   Scattered Clouds
10:55 PM 62.6 °F 55.4 °F 77% 29.76 in 10.0 mi SSE 4.6 mph - N/A   Scattered Clouds
11:16 PM 64.4 °F 55.4 °F 73% 29.76 in 10.0 mi SSE 6.9 mph - N/A   Mostly Cloudy
11:35 PM 64.4 °F 55.4 °F 73% 29.76 in 10.0 mi SSE 5.8 mph - N/A   Mostly Cloudy
11:55 PM 64.4 °F 53.6 °F 68% 29.76 in 10.0 mi SSE 5.8 mph - N/A   Mostly Cloudy